Flag for U.S.A. Weather past 2 weeks in Los Angeles, California, U.S.A.

Now
63 °F

Clear.


Feels Like: 63 °F
Forecast: 62 / 85 °F
Wind: No wind

Location: Los Angeles / USC Campus Downtown

Current Time: Sep 23, 2014 at 8:00:08 AM

Latest Report: Sep 23, 2014 at 6:47 AM


Visibility: 10 mi

Pressure: 29.94 "Hg

Humidity: 87%

Dew point: 59 °F

Location of Los AngelesLocation

Historic Weather in Los Angeles — Graph

°F

Los Angeles temperature yesterday

Maximum temperature yesterday: 79 °F (at 12:47 PM)
Minimum temperature yesterday: 63 °F (at 4:47 AM)
Average temperature yesterday: 70 °F

Past Weeks' High & Low Weather Summary

 TemperatureHumidityPressure
High102 °F (Sep 16, 11:47 AM)91% (Sep 21, 3:47 AM)29.99 "Hg (Sep 21, 3:47 AM)
Low63 °F (Sep 22, 4:47 AM)26% (Sep 9, 11:47 AM)29.66 "Hg (Sep 14, 5:47 PM)
Average77 °F61%29.82 "Hg
* Reported Sep 8 6:47 AM — Sep 23 6:47 AM, Los Angeles, Weather by CustomWeather, © 2014

Note: Actual official high and low records may vary slightly from our data, if they occured in-between our weather recording intervals... More about our weather records

Advertising

Los Angeles weather history for previous 24 hours

 ConditionsComfort  
Time TempWeatherWind HumidityBarometerVisibility
6:47 AM
Sep 23
63 °FClear.No wind87%29.94 "Hg10 mi
5:47 AM64 °FClear.No wind84%29.93 "Hg10 mi
4:47 AM64 °FClear.No wind87%29.93 "Hg10 mi
3:47 AM65 °FClear.No wind87%29.93 "Hg10 mi
2:47 AM66 °FClear.No wind84%29.93 "Hg10 mi
1:47 AM66 °FClear.No wind84%29.94 "Hg10 mi
12:47 AM67 °FClear.No wind85%29.94 "Hg10 mi
11:47 PM
Sep 22
67 °FClear.No wind85%29.94 "Hg10 mi
10:47 PM67 °FClear.No wind85%29.93 "Hg10 mi
9:47 PM67 °FClear.No wind85%29.93 "Hg10 mi
8:47 PM68 °FClear.No wind82%29.92 "Hg10 mi
7:47 PM69 °FSunny.5 mph79%29.91 "Hg10 mi
6:47 PM72 °FSunny.7 mph71%29.90 "Hg10 mi
5:47 PM76 °FSunny.6 mph60%29.89 "Hg10 mi
4:47 PM77 °FSunny.3 mph60%29.89 "Hg10 mi
3:47 PM77 °FSunny.3 mph58%29.90 "Hg10 mi
2:47 PM76 °FSunny.3 mph62%29.92 "Hg10 mi
1:47 PM77 °FSunny.3 mph60%29.93 "Hg10 mi
12:47 PM79 °FSunny.6 mph58%29.95 "Hg10 mi
11:47 AM78 °FSunny.5 mph60%29.96 "Hg10 mi
10:47 AM77 °FSunny.3 mph62%29.97 "Hg10 mi
9:47 AM72 °FSunny.No wind71%29.97 "Hg8 mi
8:47 AM70 °FSunny.No wind79%29.97 "Hg8 mi
Weather by CustomWeather, © 2014

See weather overviewHow to use our weather pages